Location: Cincinnati Observatory Center
(39.1389°N, 84.4225°W)
Time: 21:26:47
(UTC-04:00)

Amateur Radio Satellites - All Passes

Search period start: 24 October 2014 20:56
Search period end: 25 October 2014 20:56
Location: Cincinnati Observatory Center, 39.1389°N, 84.4225°W

Satellite Date Start Highest point End Downlink Frequencies (MHz)
Time Altitude Azimuth
SO-50 24 Oct 21:01:08 21:02:46 12° 38° (NE) 21:04:24 436.795 FM
AO-40 24 Oct 21:13:51 23:25:39 33° 209° (SSW) 03:58:17 Beacon 2401.320
ISS 24 Oct 21:16:04 21:18:55 26° 227° (SW) 21:21:46 145.800 FM
RS-15 24 Oct 21:39:20 21:47:51 27° 103° (ESE) 21:56:15 29.354 - 29.394 USB, Beacon 29.352 USB
ZACube-1 24 Oct 21:43:37 21:43:59 10° 62° (ENE) 21:44:22 437.345 MHz
UKube-1 24 Oct 21:45:28 21:49:08 27° 69° (ENE) 21:52:50 145.840 MHz, 145.915 MHz
HO-68 24 Oct 22:01:09 22:08:17 73° 256° (WSW) 22:15:29 435.675 MHz FM
STRAND 1 24 Oct 22:19:29 22:20:58 11° 301° (WNW) 22:22:28 ?
FUNcube-1 24 Oct 22:24:28 22:28:22 28° 70° (ENE) 22:32:13 145.950 - 145.970 MHz USB
Oscar 11 24 Oct 22:26:24 22:30:42 69° 75° (ENE) 22:35:01 145.825 FM, Beacon 2401.500 USB
KITSAT 1 24 Oct 22:28:18 22:36:26 86° 61° (ENE) 22:44:31 435.175 FM
SO-50 24 Oct 22:39:22 22:44:13 68° 57° (ENE) 22:49:04 436.795 FM
ZACube-1 24 Oct 23:15:07 23:19:43 82° 258° (WSW) 23:24:17 437.345 MHz
UKube-1 24 Oct 23:21:42 23:25:16 25° 264° (W) 23:28:51 145.840 MHz, 145.915 MHz
RS-15 24 Oct 23:48:00 23:59:01 77° 303° (WNW) 00:10:00 29.354 - 29.394 USB, Beacon 29.352 USB
HO-68 24 Oct 23:55:54 23:57:05 10° 273° (W) 23:58:15 435.675 MHz FM
FUNcube-1 25 Oct 00:00:47 00:04:39 27° 264° (W) 00:08:30 145.950 - 145.970 MHz USB
UOSAT-12 25 Oct 00:03:39 00:08:11 45° 53° (NE) 00:12:38 437.025 FM, 437.400 FM
SO-50 25 Oct 00:21:47 00:24:13 14° 252° (WSW) 00:26:39 436.795 FM
KITSAT 1 25 Oct 00:25:44 00:30:46 18° 259° (WSW) 00:35:48 435.175 FM
MaSat-1 25 Oct 00:50:49 00:54:58 65° 296° (WNW) 00:58:44 437.345 MHz
UOSAT-12 25 Oct 01:44:36 01:48:00 20° 250° (WSW) 01:51:20 437.025 FM, 437.400 FM
JAS-1B 25 Oct 01:55:05 01:59:36 18° 94° (E) 02:04:32 435.800 - 435.900 CW/SSB
Oscar 16 25 Oct 02:03:48 02:06:58 16° 92° (E) 02:10:06 437.025 USB, Beacon 2401.1428
RS-15 25 Oct 02:04:53 02:13:31 26° 330° (NNW) 02:22:15 29.354 - 29.394 USB, Beacon 29.352 USB
Oscar 10/S400 25 Oct 02:31:15 03:26:30 17° 247° (WSW) 05:16:51 145.825 - 145.975 CW/USB, Beacon 145.810 USB
ITAMSAT 1 25 Oct 02:31:16 02:32:33 11° 89° (E) 02:33:51 435.822 SSB
Oscar 19 25 Oct 02:55:48 03:00:48 52° 100° (E) 03:05:47 437.125 CW, 437.150 USB
AO-27 25 Oct 03:14:05 03:18:44 32° 97° (E) 03:23:20 436.795 MHz FM
AO-Echo 25 Oct 03:35:29 03:40:48 69° 102° (ESE) 03:46:05 ?
Oscar 16 25 Oct 03:41:38 03:46:38 55° 288° (WNW) 03:51:37 437.025 USB, Beacon 2401.1428
Sapphire 25 Oct 03:42:50 03:46:49 21° 106° (ESE) 03:50:49 437.095 MHz 1200 baud AX-25 AFSK
JAS-1B 25 Oct 03:43:47 03:50:31 79° 286° (WNW) 03:58:36 435.800 - 435.900 CW/SSB
Uribyol 2 25 Oct 04:01:19 04:06:33 87° 285° (WNW) 04:11:44 436.500 FM
PCSat 25 Oct 04:04:14 04:09:09 37° 110° (ESE) 04:14:05 145.825 MHz
ITAMSAT 1 25 Oct 04:07:23 04:12:38 81° 285° (WNW) 04:17:50 435.822 SSB
RS-15 25 Oct 04:24:47 04:31:31 17° 7° (N) 04:38:20 29.354 - 29.394 USB, Beacon 29.352 USB
Gurwin Techsat 1B 25 Oct 04:28:06 04:33:27 84° 103° (ESE) 04:38:45 435.225 FM
OPAL 25 Oct 04:31:31 04:34:05 14° 59° (ENE) 04:36:38 ?
Oscar 19 25 Oct 04:36:17 04:39:43 18° 296° (WNW) 04:43:08 437.125 CW, 437.150 USB
TMSAT-1 25 Oct 04:39:13 04:44:33 79° 103° (ESE) 04:49:51 436.925 FM
AO-27 25 Oct 04:53:38 04:58:09 30° 293° (WNW) 05:02:39 436.795 MHz FM
AO-Echo 25 Oct 05:15:54 05:18:57 16° 298° (WNW) 05:22:00 ?
JAS-2 25 Oct 05:16:39 05:17:29 10° 84° (E) 05:18:19 435.800 - 435.900 CW/SSB, 435.910 FM
AO-7 25 Oct 05:19:47 05:27:33 41° 100° (E) 05:35:16 29.400 - 29.500 MHz
Uosat F 25 Oct 05:21:10 05:25:26 27° 96° (E) 05:29:40 435.120 FM
Sapphire 25 Oct 05:24:36 05:29:50 50° 303° (WNW) 05:35:07 437.095 MHz 1200 baud AX-25 AFSK
JAS-1B 25 Oct 05:37:19 05:40:24 14° 301° (WNW) 05:43:41 435.800 - 435.900 CW/SSB
Uribyol 2 25 Oct 05:43:58 05:45:11 11° 301° (WNW) 05:46:25 436.500 FM
PCSat 25 Oct 05:47:48 05:52:34 31° 308° (NW) 05:57:23 145.825 MHz
ITAMSAT 1 25 Oct 05:50:50 05:51:14 10° 302° (WNW) 05:51:39 435.822 SSB
OPAL 25 Oct 06:07:11 06:12:20 75° 255° (WSW) 06:17:27 ?
Gurwin Techsat 1B 25 Oct 06:10:27 06:12:39 13° 300° (WNW) 06:14:51 435.225 FM
STRAND 1 25 Oct 06:16:08 06:18:45 14° 61° (ENE) 06:21:22 ?
TMSAT-1 25 Oct 06:21:18 06:23:46 13° 300° (WNW) 06:26:14 436.925 FM
Hamsat 25 Oct 06:24:24 06:26:47 15° 92° (E) 06:29:09 145.90 MHz
RS-15 25 Oct 06:38:30 06:48:33 37° 41° (NE) 06:58:54 29.354 - 29.394 USB, Beacon 29.352 USB
JAS-2 25 Oct 06:55:57 07:03:44 64° 101° (E) 07:11:25 435.800 - 435.900 CW/SSB, 435.910 FM
Uosat F 25 Oct 06:59:43 07:04:12 33° 292° (WNW) 07:08:40 435.120 FM
AO-7 25 Oct 07:12:35 07:20:17 44° 297° (WNW) 07:27:59 29.400 - 29.500 MHz
Saudisat 1A 25 Oct 07:13:21 07:15:46 15° 109° (ESE) 07:18:13 436.775 MHz
PANSAT 25 Oct 07:47:26 07:47:33 10° 164° (SSE) 07:47:40 not established
STRAND 1 25 Oct 07:52:12 07:57:18 72° 258° (WSW) 08:02:28 ?
Hamsat 25 Oct 07:58:56 08:02:54 42° 287° (WNW) 08:06:53 145.90 MHz
JAS-2 25 Oct 08:41:49 08:48:08 28° 297° (WNW) 08:54:29 435.800 - 435.900 CW/SSB, 435.910 FM
Saudisat 1A 25 Oct 08:50:35 08:54:52 53° 305° (NW) 08:59:12 436.775 MHz
RS-15 25 Oct 08:50:43 09:01:51 73° 244° (WSW) 09:13:29 29.354 - 29.394 USB, Beacon 29.352 USB
SO-67 25 Oct 08:58:17 09:01:41 58° 284° (WNW) 09:05:04 435.3500 MHz FM
PANSAT 25 Oct 09:24:33 09:26:59 16° 177° (S) 09:29:25 not established
HO-68 25 Oct 09:31:09 09:36:37 23° 93° (E) 09:42:02 435.675 MHz FM
Oscar 11 25 Oct 10:16:49 10:18:57 14° 92° (E) 10:21:05 145.825 FM, Beacon 2401.500 USB
MaSat-1 25 Oct 10:38:19 10:40:34 28° 251° (WSW) 10:42:41 437.345 MHz
PANSAT 25 Oct 11:04:26 11:06:28 14° 190° (S) 11:08:30 not established
KITSAT 1 25 Oct 11:06:13 11:08:45 12° 98° (E) 11:11:17 435.175 FM
ZACube-1 25 Oct 11:06:34 11:09:42 20° 94° (E) 11:12:46 437.345 MHz
RS-15 25 Oct 11:06:56 11:12:14 15° 263° (W) 11:17:39 29.354 - 29.394 USB, Beacon 29.352 USB
UKube-1 25 Oct 11:09:59 11:14:19 59° 101° (E) 11:18:36 145.840 MHz, 145.915 MHz
HO-68 25 Oct 11:17:40 11:24:45 64° 290° (WNW) 11:31:49 435.675 MHz FM
FUNcube-1 25 Oct 11:50:21 11:54:35 65° 101° (E) 11:58:42 145.950 - 145.970 MHz USB
Oscar 11 25 Oct 11:51:14 11:55:23 48° 287° (WNW) 11:59:31 145.825 FM, Beacon 2401.500 USB
ISS 25 Oct 12:21:21 12:23:39 18° 131° (SE) 12:25:58 145.800 FM
Sapphire 25 Oct 12:31:24 12:34:51 17° 45° (NE) 12:38:17 437.095 MHz 1200 baud AX-25 AFSK
Oscar 10/S400 25 Oct 12:39:05 12:58:42 27° 151° (SSE) 13:13:43 145.825 - 145.975 CW/USB, Beacon 145.810 USB
ZACube-1 25 Oct 12:42:24 12:46:08 31° 290° (WNW) 12:49:49 437.345 MHz
UKube-1 25 Oct 12:48:03 12:49:59 13° 297° (WNW) 12:51:55 145.840 MHz, 145.915 MHz
PCSat 25 Oct 12:53:14 12:57:43 26° 50° (NE) 13:02:11 145.825 MHz
SO-50 25 Oct 12:53:56 12:57:42 27° 112° (ESE) 13:01:33 436.795 FM
KITSAT 1 25 Oct 12:54:41 13:02:42 72° 115° (ESE) 13:10:45 435.175 FM
HO-68 25 Oct 13:08:45 13:11:04 12° 309° (NW) 13:13:23 435.675 MHz FM
Oscar 16 25 Oct 13:19:34 13:23:31 23° 65° (ENE) 13:27:28 437.025 USB, Beacon 2401.1428
FUNcube-1 25 Oct 13:29:28 13:30:21 11° 297° (WNW) 13:31:15 145.950 - 145.970 MHz USB
Uribyol 2 25 Oct 13:41:18 13:44:22 16° 62° (ENE) 13:47:26 436.500 FM
ITAMSAT 1 25 Oct 13:47:16 13:50:31 17° 62° (ENE) 13:53:47 435.822 SSB
ISS 25 Oct 13:56:52 14:00:05 46° 326° (NW) 14:03:19 145.800 FM
Gurwin Techsat 1B 25 Oct 14:11:12 14:14:05 15° 61° (ENE) 14:16:59 435.225 FM
Oscar 19 25 Oct 14:11:30 14:16:36 69° 74° (ENE) 14:21:43 437.125 CW, 437.150 USB
Sapphire 25 Oct 14:13:29 14:18:56 80° 244° (WSW) 14:24:21 437.095 MHz 1200 baud AX-25 AFSK
UOSAT-12 25 Oct 14:15:16 14:18:14 17° 109° (ESE) 14:21:13 437.025 FM, 437.400 FM
TMSAT-1 25 Oct 14:22:20 14:24:57 14° 61° (ENE) 14:27:34 436.925 FM
JAS-1B 25 Oct 14:29:21 14:35:22 81° 74° (ENE) 14:41:03 435.800 - 435.900 CW/SSB
AO-27 25 Oct 14:31:04 14:35:58 43° 70° (ENE) 14:40:54 436.795 MHz FM
AO-7 25 Oct 14:33:03 14:34:30 11° 44° (NE) 14:35:56 29.400 - 29.500 MHz
SO-50 25 Oct 14:34:04 14:38:07 32° 310° (NW) 14:42:17 436.795 FM
PCSat 25 Oct 14:36:10 14:41:21 47° 248° (WSW) 14:46:29 145.825 MHz
AO-Echo 25 Oct 14:47:18 14:52:10 77° 75° (ENE) 14:57:14 ?
KITSAT 1 25 Oct 14:52:01 14:58:48 29° 316° (NW) 15:05:38 435.175 FM
Oscar 16 25 Oct 14:57:42 15:02:35 42° 261° (W) 15:07:28 437.025 USB, Beacon 2401.1428
Uribyol 2 25 Oct 15:18:06 15:23:16 65° 258° (WSW) 15:28:29 436.500 FM
ITAMSAT 1 25 Oct 15:24:21 15:29:29 60° 259° (WSW) 15:34:40 435.822 SSB
ISS 25 Oct 15:35:47 15:37:26 13° 345° (NNW) 15:39:05 145.800 FM
Saudisat 1A 25 Oct 15:40:34 15:42:19 12° 40° (NE) 15:44:04 436.775 MHz
Gurwin Techsat 1B 25 Oct 15:48:08 15:53:25 71° 258° (WSW) 15:58:45 435.225 FM
UOSAT-12 25 Oct 15:53:24 15:57:55 52° 305° (NW) 16:02:33 437.025 FM, 437.400 FM
Oscar 19 25 Oct 15:54:03 15:56:24 13° 269° (W) 15:58:45 437.125 CW, 437.150 USB
TMSAT-1 25 Oct 15:58:53 16:04:11 76° 257° (WSW) 16:09:31 436.925 FM
AO-27 25 Oct 16:11:42 16:15:38 22° 266° (W) 16:19:36 436.795 MHz FM
AO-7 25 Oct 16:17:27 16:25:20 51° 65° (ENE) 16:33:14 29.400 - 29.500 MHz
JAS-1B 25 Oct 16:25:25 16:26:42 11° 270° (W) 16:27:58 435.800 - 435.900 CW/SSB
AO-Echo 25 Oct 16:30:29 16:31:32 11° 272° (W) 16:32:36 ?
Uosat F 25 Oct 16:33:20 16:37:49 34° 69° (ENE) 16:42:19 435.120 FM
JAS-2 25 Oct 17:08:27 17:13:05 23° 60° (ENE) 17:18:08 435.800 - 435.900 CW/SSB, 435.910 FM
ISS 25 Oct 17:14:54 17:15:19 10° 6° (N) 17:15:44 145.800 FM
Saudisat 1A 25 Oct 17:18:07 17:22:33 86° 58° (ENE) 17:26:58 436.775 MHz
AO-7 25 Oct 18:10:58 18:18:17 35° 262° (W) 18:25:39 29.400 - 29.500 MHz
Uosat F 25 Oct 18:12:26 18:16:36 26° 264° (W) 18:20:48 435.120 FM
OPAL 25 Oct 18:18:41 18:23:01 30° 99° (E) 18:27:20 ?
ISS 25 Oct 18:50:16 18:52:59 23° 26° (NNE) 18:55:43 145.800 FM
Hamsat 25 Oct 18:50:38 18:54:50 71° 259° (WSW) 18:59:01 145.90 MHz
JAS-2 25 Oct 18:51:45 18:57:31 57° 261° (W) 19:04:06 435.800 - 435.900 CW/SSB, 435.910 FM
KITSAT 1 25 Oct 18:57:32 18:57:52 10° 17° (NNE) 18:58:12 435.175 FM
SO-67 25 Oct 19:29:44 19:32:51 33° 73° (ENE) 19:35:58 435.3500 MHz FM
OPAL 25 Oct 19:57:34 20:01:49 29° 294° (WNW) 20:06:03 ?
HO-68 25 Oct 20:00:31 20:04:42 17° 55° (NE) 20:08:55 435.675 MHz FM
STRAND 1 25 Oct 20:04:06 20:09:00 42° 99° (E) 20:13:51 ?
ISS 25 Oct 20:26:36 20:29:51 49° 223° (SW) 20:33:04 145.800 FM
